User: anonymous   Login
Location: Unspecified
(0.0000°N, 0.0000°E)
Time: 01:19:42
(UTC+00:00)
Language:

Cosmos 1312 - Orbit

View from above orbital plane
View from above orbital plane
View from above satellite
View from above satellite

Ground track
Ground track

The orbit data is extracted from the following two-line orbital elements,

1 12879U 81098A   18202.53579362 +.00000007 +00000-0 -22602-4 0  9990
2 12879 082.5986 196.9170 0006035 299.1945 182.3826 12.42348045210975
Epoch (UTC): 21 July 2018 12:51:32
Eccentricity: 0.0006035
inclination: 82.5986°
perigee height: 1492 km
apogee height: 1501 km
right ascension of ascending node: 196.9170°
argument of perigee: 299.1945°
revolutions per day: 12.42348045
mean anomaly at epoch: 182.3826°
orbit number at epoch: 21097

The dashed part of the orbit path shows where the satellite is in the earth's shadow,  

DLR